Regional Weather Roundup
Issued by NWS

Home | Current Version | Previous Version | Text Only | Print | Product List | Glossary On
Versions: 1 2 3 4 5 6 7 8 9 10 11 12 13 14 15 16 17 18 19 20 21 22 23 24 25 26 27 28 29 30 31 32 33 34 35 36 37 38 39 40 41 42 43 44 45 46 47 48 49 50
000
ASUS43 KLMK 210002
RWRKY
KENTUCKY REGIONAL WEATHER ROUNDUP
NATIONAL WEATHER SERVICE LOUISVILLE KY
800 PM EDT SUN AUG 20 2017

NOTE "FAIR" INDICATES FEW OR NO CLOUDS BELOW 12,000 FEET
WITH NO SIGNIFICANT WEATHER AND/OR OBSTRUCTIONS TO VISIBILITY.

KYZ001>023-026-027-061>063-070>075-210100-
WESTERN AND SOUTH CENTRAL KENTUCKY

CITY           SKY/WX    TMP DP  RH WIND       PRES   REMARKS
PADUCAH        MOCLDY    87  73  62 CALM      30.02R HX  94
HENDERSON      MOCLDY    86  71  60 SW5       30.03F HX  91
OWENSBORO      NOT AVBL
HOPKINSVILLE   CLOUDY    87  69  54 CALM      30.04F HX  91
BOWLING GREEN  PTCLDY    86  71  60 E3        30.06S HX  91
GLASGOW        CLEAR     80  71  72 CALM      30.09R
$$

KYZ024-025-028>034-038-045-046-053-210100-
NORTH CENTRAL KENTUCKY

CITY           SKY/WX    TMP DP  RH WIND       PRES   REMARKS
LOUISVILLE/SDF MOCLDY    89  64  43 SW6       30.06R HX  90
LOUISVILLE/LOU CLOUDY    86  66  51 SW6       30.07R
FORT KNOX      CLOUDY    84  69  60 S5        30.06S
$$

KYZ035>037-039>044-047>052-055>060-089>105-210100-
NORTHEAST KENTUCKY

CITY           SKY/WX    TMP DP  RH WIND       PRES   REMARKS
LEXINGTON      CLEAR     84  67  56 SW5       30.11R
COVINGTON      CLOUDY    79  72  79 S3        30.09R
FRANKFORT      MOCLDY    84  67  56 SW3       30.08R
$$

KYZ054-064>069-076>088-106>120-210100-
SOUTHEAST KENTUCKY

CITY           SKY/WX    TMP DP  RH WIND       PRES   REMARKS
JACKSON        CLEAR     82  61  48 CALM      30.14R
LONDON         CLEAR     85  63  47 CALM      30.13R
SOMERSET       NOT AVBL
MIDDLESBORO    PTCLDY    80  72  76 CALM      30.14R
MONTICELLO     CLEAR     76  71  85 N12       30.13R
$$




USA.gov is the U.S. government's official web portal to all federal, state and local government web resources and services.